SCP
0 0 0 -0 -0 -0 0 0 0 0 0 0 0 0 0 0 0 0 0 0 0 0 0 0 0 0 0 0 0 0 0 0 0 0 0 0 0 0 2 2 1 1 1
0 0 -0 -0 0 0 0 0 0 1 0 0 0 0 0 0 0 0 0 0 0 0 0 0 0 0 0 0 0 0 0 0 0 0 0 0 0 0 1 1 1 1 1
0 0 0 0 0 0 0 1 1 1 0 0 0 0 0 0 0 0 0 0 0 0 0 0 0 1 0 0 0 0 0 0 0 0 0 0 0 1 0 1 1 1 1
0 0 0 0 0 0 0 0 0 0 0 0 0 0 0 0 0 0 0 0 0 0 0 0 0 0 1 1 0 0 0 0 0 0 0 0 0 0 1 0 1 1 1
0 0 0 0 0 0 0 0 0 0 0 0 0 0 0 0 0 0 0 0 0 0 0 0 0 0 0 0 1 1 1 0 0 0 0 0 0 0 0 0 1 0 0
0 0 0 0 0 0 0 0 0 0 0 0 0 0 0 0 0 0 0 0 0 0 0 0 0 0 0 0 1 1 0 0 0 0 0 0 0 0 0 0 0 0 0
0 0 0 0 0 0 0 0 0 0 0 0 0 0 0 0 0 0 0 0 0 0 0 0 0 0 0 0 0 1 1 0 0 0 0 0 0 0 0 0 0 0 0
0 0 0 0 0 0 0 0 0 0 0 0 0 0 0 0 0 0 0 0 0 0 0 0 0 0 0 0 0 0 1 0 0 0 0 0 0 0 0 0 0 0 0
0 0 0 0 0 0 0 0 0 0 0 0 0 0 0 0 0 0 0 0 0 0 0 0 0 0 0 0 0 0 0 0 0 0 0 0 0 0 0 0 0 0 0
0 0 0 0 0 0 0 0 0 0 0 0 0 0 0 0 0 0 0 0 0 0 0 0 0 0 0 0 0 0 0 0 0 0 0 0 0 0 0 0 0 1 0
0 0 0 0 0 0 0 0 0 0 0 0 0 0 0 0 0 0 0 0 0 0 0 0 0 0 0 0 0 0 0 0 0 0 0 0 0 0 0 0 0 0 0
0 0 0 0 0 0 0 0 0 0 0 0 0 0 0 0 0 0 0 0 0 0 0 0 0 0 0 0 0 0 0 0 0 0 0 0 0 0 0 -0 0 0 0
0 0 0 0 0 0 0 0 0 0 0 0 0 0 0 0 0 0 0 0 0 0 0 0 0 0 0 0 0 0 0 0 0 0 0 0 0 0 0 -0 -0 0 0
0 0 0 0 0 0 0 0 0 0 0 0 0 0 0 0 0 0 0 0 0 0 0 0 0 0 0 -0 -0 0 0 0 0 0 0 0 0 -0 -0 -0 -0 0 0
0 0 0 0 0 0 0 0 0 0 0 0 0 0 0 0 0 0 0 0 0 0 0 0 0 0 -0 -0 -0 0 0 0 0 0 0 0 0 0 0 -0 -0 0 0
0 0 0 0 0 0 0 0 0 0 0 0 0 0 0 0 0 0 0 0 0 0 0 0 0 0 0 -0 -0 0 0 0 0 0 0 0 0 0 0 0 0 -0 -0
0 0 0 0 0 0 0 0 0 0 0 0 0 0 0 0 0 0 0 0 0 0 0 0 0 0 -0 -0 -0 -0 0 0 0 0 0 0 0 0 0 0 0 0 0
0 0 0 0 0 0 0 0 0 0 0 0 0 0 0 0 0 0 0 0 0 0 0 0 0 0 0 -0 -0 0 0 0 0 0 0 0 0 0 0 0 0 0 0
0 0 0 0 0 0 0 0 0 0 0 0 0 0 0 0 0 0 0 0 0 0 0 0 0 0 0 -0 -0 0 -0 -0 0 0 0 0 0 0 0 -0 0 0 0
0 0 0 0 0 0 0 0 0 0 0 0 0 0 0 0 0 0 0 0 0 0 0 -0 0 0 0 -0 -0 0 0 0 0 0 0 0 0 0 0 0 0 0 0
0 0 0 0 0 0 0 0 0 0 0 0 0 0 0 0 0 0 0 0 0 0 0 -0 -0 -0 0 -0 -0 -0 0 0 0 0 0 0 0 0 0 0 0 0 0
0 0 0 0 0 0 0 0 0 0 0 0 0 0 0 0 0 0 0 0 0 0 0 -0 -0 0 0 -0 -0 -0 0 0 0 0 0 0 0 0 0 0 0 0 0
0 0 0 0 0 0 0 0 0 0 0 0 0 0 0 0 0 0 0 0 0 0 0 0 0 0 -0 -0 -0 0 0 0 0 0 0 0 0 0 0 0 0 0 0
0 0 0 0 0 0 0 0 0 0 0 0 0 0 0 0 0 0 0 0 0 0 0 0 0 0 0 0 -0 0 0 0 0 0 0 0 0 0 0 0 0 0 0
0 0 0 0 0 0 0 0 0 0 0 0 0 0 0 0 0 0 0 0 0 0 0 0 0 0 0 0 0 -0 0 0 0 0 0 0 0 0 0 0 0 0 0
0 0 0 0 0 0 0 0 0 0 0 0 0 0 0 0 0 0 0 0 0 -0 0 0 0 0 0 0 -0 -0 0 0 0 0 0 0 0 0 0 0 0 0 0
Wind_Speed_500mb
28 31 25 26 27 26 23 23 21 26 31 31 33 36 38 37 38 35 48 45 46 52 45 45 51 42 38 44 33 39 49 43 35 35 25 10 8 13 13 17 13 9 7
34 34 33 33 33 31 26 24 29 34 40 43 46 46 45 47 49 53 51 57 57 57 53 47 45 49 42 41 40 37 43 48 55 57 43 25 20 15 15 16 14 9 9
37 35 36 36 36 32 30 30 34 42 48 52 53 53 53 57 58 60 63 66 68 68 66 58 56 53 50 47 43 41 43 37 43 48 43 31 34 21 16 9 6 1 2
42 40 39 38 37 35 36 36 41 48 56 59 60 59 59 64 64 67 73 76 76 77 77 74 68 64 61 62 53 43 38 38 31 39 46 62 58 52 40 21 18 19 17
37 35 33 40 40 34 32 40 45 47 48 50 51 53 56 57 60 65 70 72 74 73 73 75 76 73 66 67 67 59 50 41 41 44 42 43 47 48 48 42 27 15 23
26 31 17 14 19 29 35 38 35 32 37 42 46 51 57 67 75 81 86 83 83 86 85 85 82 82 80 70 67 62 56 48 41 39 45 44 41 46 45 30 31 23 22
15 12 13 17 20 22 25 28 33 38 41 47 55 65 72 76 80 80 68 69 64 62 63 66 70 65 61 65 68 63 63 56 47 39 41 42 38 38 39 36 20 21 31
9 10 13 14 19 25 29 31 36 43 53 63 69 73 77 76 71 64 70 72 65 60 64 62 57 57 62 51 49 51 60 56 52 42 38 32 33 35 31 36 35 32 23
9 10 14 20 26 27 32 40 47 56 64 73 75 77 72 65 66 65 58 58 51 55 57 56 59 55 48 50 43 44 45 47 48 51 46 42 25 34 32 29 29 28 25
10 12 19 25 29 35 41 47 53 65 75 73 70 65 63 61 56 55 55 54 55 55 53 49 48 50 46 51 46 44 43 43 43 40 44 46 53 49 40 37 32 31 27
11 16 24 28 30 41 45 53 64 66 58 55 63 65 64 57 51 49 48 48 51 52 53 54 53 44 38 33 47 44 46 47 45 41 37 41 42 50 41 40 38 39 35
14 23 27 31 40 45 50 53 55 54 50 54 57 57 58 47 47 47 49 50 52 52 52 51 45 42 36 35 32 42 50 48 44 38 38 33 27 37 45 40 46 44 40
18 24 25 31 39 45 48 51 52 51 51 53 59 49 43 45 49 49 52 46 52 55 49 43 39 38 38 36 29 27 36 53 55 52 46 36 37 37 35 38 35 39 44
24 23 30 36 41 47 50 52 55 51 49 56 54 47 45 48 49 53 58 49 51 49 46 37 40 36 34 29 31 29 31 32 35 40 42 38 37 37 34 34 33 36 45
23 27 32 39 46 49 52 55 59 56 56 59 54 46 50 52 52 57 53 52 52 43 35 35 32 28 33 31 26 27 31 28 30 36 37 38 36 34 30 33 29 33 39
25 29 32 41 47 49 53 58 61 60 58 59 50 47 53 51 55 51 51 52 48 43 34 29 28 28 30 28 26 30 26 28 28 27 31 32 31 26 31 29 25 26 41
26 29 34 40 48 51 56 56 60 61 57 55 52 53 52 54 55 51 46 52 47 42 35 27 24 22 20 16 19 22 23 24 28 29 29 30 29 23 27 29 31 34 32
26 29 35 44 52 50 52 51 56 57 59 58 57 56 48 57 54 45 50 47 47 46 35 23 22 23 21 19 23 19 23 27 26 26 30 34 31 24 24 25 21 35 35
27 34 43 49 53 50 51 52 59 56 56 59 60 53 53 58 53 49 45 43 44 49 46 24 22 22 22 25 22 33 29 31 34 31 27 27 31 30 27 14 21 31 45
28 36 44 50 48 50 51 51 54 56 56 60 58 49 51 55 53 50 50 44 34 34 40 22 19 21 21 22 26 25 31 33 31 28 23 31 34 35 22 18 16 36 44
28 37 43 49 46 51 49 50 54 52 57 59 57 47 51 56 54 53 48 42 26 33 35 18 10 11 13 18 28 29 27 28 32 27 32 34 37 39 25 20 26 43 45
30 36 43 48 44 46 49 51 51 49 59 56 54 45 52 55 55 51 45 41 32 29 28 7 4 9 13 17 24 29 24 25 27 29 32 41 43 34 31 26 38 41 51
31 36 42 49 41 42 46 48 46 50 59 54 52 48 54 57 53 50 44 43 40 42 31 15 9 15 21 17 26 31 33 25 25 27 37 43 38 38 35 34 54 51 50
30 35 42 46 42 42 46 43 44 46 53 52 51 49 57 58 55 49 42 43 44 44 31 14 15 20 25 30 42 38 35 33 36 42 46 41 35 43 42 43 36 39 37
28 33 41 44 41 43 44 42 41 46 49 49 48 51 55 59 53 47 39 39 40 40 23 18 21 27 34 39 37 41 41 41 46 53 43 38 43 49 45 42 39 33 32
28 33 39 41 41 39 41 40 39 43 46 48 48 49 54 57 49 46 41 34 40 38 31 29 29 34 41 41 40 40 37 44 45 45 41 45 45 54 52 42 39 35 35
Wind_Direction_500mb
189 188 203 214 222 230 242 251 263 265 269 277 286 286 285 283 287 302 300 309 302 304 303 311 313 315 300 284 287 287 272 266 278 294 283 299 170 296 257 211 195 202 208
209 214 224 234 240 243 255 272 277 276 274 276 277 281 282 284 287 289 287 296 291 294 296 293 299 305 295 284 293 298 293 278 270 270 276 272 288 274 247 217 211 208 245
228 239 243 246 251 260 267 281 285 280 278 277 278 278 285 289 289 284 282 281 281 286 291 292 288 287 284 284 286 291 291 278 272 276 248 244 235 275 236 252 228 106 275
236 248 257 265 275 279 279 279 285 283 280 280 282 286 293 293 291 290 287 286 282 282 284 288 287 285 281 281 279 284 281 278 271 280 261 243 245 254 260 254 249 261 299
243 259 275 282 282 277 275 284 286 289 291 290 291 292 294 297 299 298 296 292 288 284 284 284 285 284 280 274 270 272 275 270 269 265 266 257 238 242 251 250 246 265 280
247 262 274 288 281 280 284 289 297 304 302 295 293 294 297 299 299 298 297 297 294 293 288 285 285 282 278 271 267 261 262 263 264 264 259 247 227 220 231 261 268 260 263
228 237 275 284 285 290 297 302 302 300 295 298 299 300 301 303 304 304 305 303 301 297 295 293 288 287 287 276 263 256 250 253 251 252 256 249 242 238 232 233 239 243 230
227 263 276 293 303 305 299 298 294 299 305 306 307 307 307 308 306 304 303 304 302 304 307 303 293 284 281 283 268 255 243 244 248 246 247 245 238 237 235 226 213 232 220
214 260 289 303 305 304 305 303 306 309 308 310 310 309 310 310 307 305 307 309 308 310 308 303 301 298 283 269 266 257 242 241 240 235 235 246 238 235 236 231 226 220 212
250 287 305 310 317 313 307 308 311 311 311 311 310 310 311 312 308 307 309 306 301 300 301 297 295 297 293 266 255 249 245 239 239 236 235 238 239 252 253 248 242 238 242
248 295 311 317 315 314 309 308 312 314 313 313 313 313 313 313 311 311 309 308 305 306 299 299 295 296 294 287 259 247 240 240 243 248 250 245 243 232 245 246 248 248 238
285 308 311 314 316 315 313 316 317 317 315 316 316 312 313 312 310 308 310 310 310 304 299 296 295 288 289 288 271 252 240 235 239 248 254 246 245 247 245 241 244 243 228
301 307 311 312 318 316 317 319 320 319 320 321 325 319 319 316 317 314 317 313 313 310 298 293 293 286 286 281 270 260 243 244 248 248 243 245 245 246 240 234 228 226 219
300 305 312 315 318 318 322 323 324 324 321 324 325 325 325 323 322 322 322 316 317 310 306 293 277 275 283 270 262 257 248 247 240 233 236 240 241 242 238 228 226 217 214
300 309 313 316 320 322 325 328 330 329 326 327 326 322 324 325 328 328 327 320 324 316 309 293 280 277 278 260 255 263 247 244 242 239 234 227 233 229 234 222 219 215 210
300 309 313 319 323 325 328 337 339 337 331 327 330 321 326 333 334 330 328 334 331 326 303 286 281 282 277 255 247 247 235 234 231 228 216 217 213 223 213 215 219 222 215
302 310 318 320 323 327 332 335 336 334 335 335 331 333 334 333 335 335 339 340 338 328 313 285 279 268 258 245 243 238 223 226 219 215 208 202 208 216 210 216 217 222 217
303 313 317 320 327 330 332 329 330 333 340 341 339 337 333 335 337 340 340 338 341 341 321 282 267 261 249 251 222 220 218 213 210 205 206 205 205 200 200 208 226 214 207
306 314 321 326 329 330 327 322 331 335 337 341 336 338 340 340 341 339 337 331 324 332 337 287 262 256 250 231 227 220 224 217 212 209 209 202 200 204 212 210 231 203 187
306 318 326 329 328 330 327 327 330 334 340 339 340 344 346 347 347 352 345 336 335 338 329 311 253 247 236 227 202 209 210 211 205 197 199 205 196 193 187 203 191 177 180
309 321 329 331 329 330 332 330 333 340 342 343 346 350 352 352 354 356 350 351 340 335 339 320 235 246 239 220 200 200 199 197 186 193 189 185 186 188 190 188 179 179 169
312 322 330 335 333 332 332 334 339 342 345 349 350 354 354 356 1 355 353 357 359 345 355 340 259 215 167 176 184 178 175 173 177 174 176 173 176 173 175 185 160 178 167
313 323 331 335 338 332 335 336 342 345 347 351 356 355 359 4 3 359 4 6 4 12 23 43 89 127 141 145 149 149 148 152 160 162 165 160 167 164 172 143 153 154 159
315 325 331 337 337 332 336 339 342 349 350 353 357 359 3 8 5 11 14 11 4 8 13 47 95 129 141 140 143 145 140 136 139 146 151 152 155 156 165 160 150 146 153
318 327 332 336 335 333 336 346 349 352 353 358 0 2 6 10 11 21 21 11 5 359 28 73 106 129 135 139 143 144 141 146 141 147 140 146 145 154 157 154 155 156 156
322 328 331 334 332 337 340 347 353 358 357 359 1 3 8 10 18 24 32 27 21 50 63 83 96 111 125 123 132 133 141 137 145 148 141 138 139 159 145 152 155 151 151
Wind_Speed_850mb
28 31 25 26 27 26 23 23 21 26 31 31 33 36 38 37 38 35 48 45 46 52 45 45 51 42 38 44 33 39 49 43 35 35 25 10 8 13 13 17 13 9 7
34 34 33 33 33 31 26 24 29 34 40 43 46 46 45 47 49 53 51 57 57 57 53 47 45 49 42 41 40 37 43 48 55 57 43 25 20 15 15 16 14 9 9
37 35 36 36 36 32 30 30 34 42 48 52 53 53 53 57 58 60 63 66 68 68 66 58 56 53 50 47 43 41 43 37 43 48 43 31 34 21 16 9 6 1 2
42 40 39 38 37 35 36 36 41 48 56 59 60 59 59 64 64 67 73 76 76 77 77 74 68 64 61 62 53 43 38 38 31 39 46 62 58 52 40 21 18 19 17
37 35 33 40 40 34 32 40 45 47 48 50 51 53 56 57 60 65 70 72 74 73 73 75 76 73 66 67 67 59 50 41 41 44 42 43 47 48 48 42 27 15 23
26 31 17 14 19 29 35 38 35 32 37 42 46 51 57 67 75 81 86 83 83 86 85 85 82 82 80 70 67 62 56 48 41 39 45 44 41 46 45 30 31 23 22
15 12 13 17 20 22 25 28 33 38 41 47 55 65 72 76 80 80 68 69 64 62 63 66 70 65 61 65 68 63 63 56 47 39 41 42 38 38 39 36 20 21 31
9 10 13 14 19 25 29 31 36 43 53 63 69 73 77 76 71 64 70 72 65 60 64 62 57 57 62 51 49 51 60 56 52 42 38 32 33 35 31 36 35 32 23
9 10 14 20 26 27 32 40 47 56 64 73 75 77 72 65 66 65 58 58 51 55 57 56 59 55 48 50 43 44 45 47 48 51 46 42 25 34 32 29 29 28 25
10 12 19 25 29 35 41 47 53 65 75 73 70 65 63 61 56 55 55 54 55 55 53 49 48 50 46 51 46 44 43 43 43 40 44 46 53 49 40 37 32 31 27
11 16 24 28 30 41 45 53 64 66 58 55 63 65 64 57 51 49 48 48 51 52 53 54 53 44 38 33 47 44 46 47 45 41 37 41 42 50 41 40 38 39 35
14 23 27 31 40 45 50 53 55 54 50 54 57 57 58 47 47 47 49 50 52 52 52 51 45 42 36 35 32 42 50 48 44 38 38 33 27 37 45 40 46 44 40
18 24 25 31 39 45 48 51 52 51 51 53 59 49 43 45 49 49 52 46 52 55 49 43 39 38 38 36 29 27 36 53 55 52 46 36 37 37 35 38 35 39 44
24 23 30 36 41 47 50 52 55 51 49 56 54 47 45 48 49 53 58 49 51 49 46 37 40 36 34 29 31 29 31 32 35 40 42 38 37 37 34 34 33 36 45
23 27 32 39 46 49 52 55 59 56 56 59 54 46 50 52 52 57 53 52 52 43 35 35 32 28 33 31 26 27 31 28 30 36 37 38 36 34 30 33 29 33 39
25 29 32 41 47 49 53 58 61 60 58 59 50 47 53 51 55 51 51 52 48 43 34 29 28 28 30 28 26 30 26 28 28 27 31 32 31 26 31 29 25 26 41
26 29 34 40 48 51 56 56 60 61 57 55 52 53 52 54 55 51 46 52 47 42 35 27 24 22 20 16 19 22 23 24 28 29 29 30 29 23 27 29 31 34 32
26 29 35 44 52 50 52 51 56 57 59 58 57 56 48 57 54 45 50 47 47 46 35 23 22 23 21 19 23 19 23 27 26 26 30 34 31 24 24 25 21 35 35
27 34 43 49 53 50 51 52 59 56 56 59 60 53 53 58 53 49 45 43 44 49 46 24 22 22 22 25 22 33 29 31 34 31 27 27 31 30 27 14 21 31 45
28 36 44 50 48 50 51 51 54 56 56 60 58 49 51 55 53 50 50 44 34 34 40 22 19 21 21 22 26 25 31 33 31 28 23 31 34 35 22 18 16 36 44
28 37 43 49 46 51 49 50 54 52 57 59 57 47 51 56 54 53 48 42 26 33 35 18 10 11 13 18 28 29 27 28 32 27 32 34 37 39 25 20 26 43 45
30 36 43 48 44 46 49 51 51 49 59 56 54 45 52 55 55 51 45 41 32 29 28 7 4 9 13 17 24 29 24 25 27 29 32 41 43 34 31 26 38 41 51
31 36 42 49 41 42 46 48 46 50 59 54 52 48 54 57 53 50 44 43 40 42 31 15 9 15 21 17 26 31 33 25 25 27 37 43 38 38 35 34 54 51 50
30 35 42 46 42 42 46 43 44 46 53 52 51 49 57 58 55 49 42 43 44 44 31 14 15 20 25 30 42 38 35 33 36 42 46 41 35 43 42 43 36 39 37
28 33 41 44 41 43 44 42 41 46 49 49 48 51 55 59 53 47 39 39 40 40 23 18 21 27 34 39 37 41 41 41 46 53 43 38 43 49 45 42 39 33 32
28 33 39 41 41 39 41 40 39 43 46 48 48 49 54 57 49 46 41 34 40 38 31 29 29 34 41 41 40 40 37 44 45 45 41 45 45 54 52 42 39 35 35
Wind_Direction_850mb
189 188 203 214 222 230 242 251 263 265 269 277 286 286 285 283 287 302 300 309 302 304 303 311 313 315 300 284 287 287 272 266 278 294 283 299 170 296 257 211 195 202 208
209 214 224 234 240 243 255 272 277 276 274 276 277 281 282 284 287 289 287 296 291 294 296 293 299 305 295 284 293 298 293 278 270 270 276 272 288 274 247 217 211 208 245
228 239 243 246 251 260 267 281 285 280 278 277 278 278 285 289 289 284 282 281 281 286 291 292 288 287 284 284 286 291 291 278 272 276 248 244 235 275 236 252 228 106 275
236 248 257 265 275 279 279 279 285 283 280 280 282 286 293 293 291 290 287 286 282 282 284 288 287 285 281 281 279 284 281 278 271 280 261 243 245 254 260 254 249 261 299
243 259 275 282 282 277 275 284 286 289 291 290 291 292 294 297 299 298 296 292 288 284 284 284 285 284 280 274 270 272 275 270 269 265 266 257 238 242 251 250 246 265 280
247 262 274 288 281 280 284 289 297 304 302 295 293 294 297 299 299 298 297 297 294 293 288 285 285 282 278 271 267 261 262 263 264 264 259 247 227 220 231 261 268 260 263
228 237 275 284 285 290 297 302 302 300 295 298 299 300 301 303 304 304 305 303 301 297 295 293 288 287 287 276 263 256 250 253 251 252 256 249 242 238 232 233 239 243 230
227 263 276 293 303 305 299 298 294 299 305 306 307 307 307 308 306 304 303 304 302 304 307 303 293 284 281 283 268 255 243 244 248 246 247 245 238 237 235 226 213 232 220
214 260 289 303 305 304 305 303 306 309 308 310 310 309 310 310 307 305 307 309 308 310 308 303 301 298 283 269 266 257 242 241 240 235 235 246 238 235 236 231 226 220 212
250 287 305 310 317 313 307 308 311 311 311 311 310 310 311 312 308 307 309 306 301 300 301 297 295 297 293 266 255 249 245 239 239 236 235 238 239 252 253 248 242 238 242
248 295 311 317 315 314 309 308 312 314 313 313 313 313 313 313 311 311 309 308 305 306 299 299 295 296 294 287 259 247 240 240 243 248 250 245 243 232 245 246 248 248 238
285 308 311 314 316 315 313 316 317 317 315 316 316 312 313 312 310 308 310 310 310 304 299 296 295 288 289 288 271 252 240 235 239 248 254 246 245 247 245 241 244 243 228
301 307 311 312 318 316 317 319 320 319 320 321 325 319 319 316 317 314 317 313 313 310 298 293 293 286 286 281 270 260 243 244 248 248 243 245 245 246 240 234 228 226 219
300 305 312 315 318 318 322 323 324 324 321 324 325 325 325 323 322 322 322 316 317 310 306 293 277 275 283 270 262 257 248 247 240 233 236 240 241 242 238 228 226 217 214
300 309 313 316 320 322 325 328 330 329 326 327 326 322 324 325 328 328 327 320 324 316 309 293 280 277 278 260 255 263 247 244 242 239 234 227 233 229 234 222 219 215 210
300 309 313 319 323 325 328 337 339 337 331 327 330 321 326 333 334 330 328 334 331 326 303 286 281 282 277 255 247 247 235 234 231 228 216 217 213 223 213 215 219 222 215
302 310 318 320 323 327 332 335 336 334 335 335 331 333 334 333 335 335 339 340 338 328 313 285 279 268 258 245 243 238 223 226 219 215 208 202 208 216 210 216 217 222 217
303 313 317 320 327 330 332 329 330 333 340 341 339 337 333 335 337 340 340 338 341 341 321 282 267 261 249 251 222 220 218 213 210 205 206 205 205 200 200 208 226 214 207
306 314 321 326 329 330 327 322 331 335 337 341 336 338 340 340 341 339 337 331 324 332 337 287 262 256 250 231 227 220 224 217 212 209 209 202 200 204 212 210 231 203 187
306 318 326 329 328 330 327 327 330 334 340 339 340 344 346 347 347 352 345 336 335 338 329 311 253 247 236 227 202 209 210 211 205 197 199 205 196 193 187 203 191 177 180
309 321 329 331 329 330 332 330 333 340 342 343 346 350 352 352 354 356 350 351 340 335 339 320 235 246 239 220 200 200 199 197 186 193 189 185 186 188 190 188 179 179 169
312 322 330 335 333 332 332 334 339 342 345 349 350 354 354 356 1 355 353 357 359 345 355 340 259 215 167 176 184 178 175 173 177 174 176 173 176 173 175 185 160 178 167
313 323 331 335 338 332 335 336 342 345 347 351 356 355 359 4 3 359 4 6 4 12 23 43 89 127 141 145 149 149 148 152 160 162 165 160 167 164 172 143 153 154 159
315 325 331 337 337 332 336 339 342 349 350 353 357 359 3 8 5 11 14 11 4 8 13 47 95 129 141 140 143 145 140 136 139 146 151 152 155 156 165 160 150 146 153
318 327 332 336 335 333 336 346 349 352 353 358 0 2 6 10 11 21 21 11 5 359 28 73 106 129 135 139 143 144 141 146 141 147 140 146 145 154 157 154 155 156 156
322 328 331 334 332 337 340 347 353 358 357 359 1 3 8 10 18 24 32 27 21 50 63 83 96 111 125 123 132 133 141 137 145 148 141 138 139 159 145 152 155 151 151